Location: Asheville, NC
(35.6000°N, 82.5500°W)
Time: 23:46:12

RS-15 - Pass Details

Date: 10 March 2018
Orbit: 1888 x 2157 km, 64.8° (Epoch: 19 March)

Event Time Altitude Azimuth Distance (km) Brightness Sun altitude
Rises 05:32:16 0° 314° (NW) 5,625 10.1 -16.2°
Reaches altitude 10° 05:38:45 10° 339° (NNW) 4,570 9.8 -14.9°
Maximum altitude 05:44:18 14° 8° (N) 4,192 9.9 -13.8°
Drops below altitude 10° 05:49:44 10° 37° (NE) 4,464 10.5 -12.7°
Sets 05:55:52 0° 62° (ENE) 5,402 11.6 -11.4°
